QPF
0.02 0.03 0.03 0.04 0.03 0.03 0.02 0.02 0.01 0.00 0.00 0.00 0.00 0.00 0.00 0.01 0.04 0.03 0.00 0.00 0.01 0.03 0.01 0.00 0.00 0.00 0.00 0.00 0.00 0.00 0.00 0.00 0.00 0.00 0.00 0.00 0.00 0.00 0.00 0.00 0.00 0.00 0.00 0.00 0.00 0.00 0.00 0.00 0.00 0.00 0.00 0.00 0.00 0.00
0.02 0.02 0.03 0.03 0.04 0.03 0.03 0.02 0.01 0.01 0.00 0.00 0.00 0.00 0.00 0.01 0.03 0.04 0.01 0.00 0.01 0.02 0.01 0.00 0.00 0.00 0.00 0.00 0.00 0.00 0.00 0.00 0.00 0.00 0.00 0.00 0.00 0.00 0.00 0.00 0.00 0.00 0.00 0.00 0.00 0.00 0.00 0.00 0.00 0.00 0.00 0.00 0.00 0.00
0.01 0.02 0.02 0.02 0.02 0.03 0.03 0.02 0.02 0.01 0.00 0.00 0.00 0.00 0.01 0.01 0.02 0.04 0.01 0.01 0.01 0.01 0.01 0.01 0.00 0.00 0.00 0.00 0.00 0.00 0.00 0.00 0.00 0.00 0.00 0.00 0.00 0.00 0.00 0.00 0.00 0.00 0.00 0.00 0.00 0.00 0.00 0.00 0.00 0.00 0.00 0.00 0.00 0.00
0.01 0.01 0.02 0.02 0.02 0.02 0.02 0.02 0.02 0.01 0.00 0.00 0.00 0.01 0.01 0.01 0.02 0.04 0.01 0.01 0.01 0.00 0.01 0.01 0.00 0.00 0.00 0.00 0.00 0.00 0.00 0.00 0.00 0.00 0.01 0.00 0.00 0.00 0.00 0.00 0.00 0.00 0.00 0.00 0.00 0.00 0.00 0.00 0.00 0.00 0.00 0.00 0.00 0.00
0.02 0.02 0.01 0.02 0.02 0.02 0.03 0.02 0.01 0.01 0.00 0.00 0.00 0.01 0.02 0.02 0.03 0.05 0.01 0.00 0.00 0.00 0.01 0.01 0.01 0.00 0.00 0.00 0.00 0.00 0.00 0.00 0.01 0.01 0.02 0.00 0.00 0.00 0.00 0.00 0.00 0.00 0.00 0.00 0.00 0.00 0.00 0.00 0.00 0.00 0.00 0.00 0.00 0.00
0.02 0.02 0.02 0.02 0.02 0.02 0.02 0.02 0.02 0.01 0.00 0.00 0.01 0.02 0.03 0.03 0.05 0.04 0.01 0.00 0.00 0.00 0.01 0.02 0.01 0.00 0.00 0.00 0.00 0.00 0.00 0.00 0.01 0.02 0.01 0.00 0.00 0.00 0.00 0.00 0.00 0.00 0.00 0.00 0.00 0.00 0.00 0.00 0.00 0.00 0.00 0.00 0.00 0.00
0.02 0.02 0.03 0.03 0.02 0.02 0.02 0.02 0.02 0.01 0.00 0.01 0.01 0.02 0.03 0.05 0.07 0.02 0.03 0.01 0.00 0.00 0.01 0.02 0.02 0.01 0.00 0.00 0.00 0.00 0.00 0.01 0.03 0.03 0.01 0.00 0.00 0.00 0.00 0.00 0.00 0.00 0.00 0.00 0.00 0.00 0.00 0.00 0.00 0.00 0.00 0.00 0.00 0.00
0.02 0.02 0.03 0.02 0.02 0.01 0.01 0.01 0.01 0.01 0.00 0.00 0.01 0.02 0.04 0.09 0.07 0.02 0.00 0.01 0.00 0.00 0.00 0.01 0.02 0.01 0.02 0.02 0.02 0.03 0.03 0.04 0.03 0.03 0.01 0.00 0.00 0.00 0.00 0.00 0.00 0.00 0.00 0.00 0.00 0.00 0.00 0.00 0.00 0.00 0.00 0.00 0.00 0.00
0.01 0.02 0.02 0.02 0.02 0.01 0.01 0.01 0.00 0.00 0.00 0.00 0.02 0.06 0.10 0.08 0.03 0.00 0.00 0.00 0.01 0.00 0.01 0.00 0.01 0.02 0.01 0.02 0.02 0.03 0.04 0.03 0.03 0.03 0.01 0.00 0.01 0.00 0.00 0.00 0.00 0.00 0.00 0.00 0.00 0.00 0.00 0.00 0.00 0.00 0.00 0.00 0.00 0.00
0.01 0.01 0.01 0.01 0.01 0.02 0.01 0.01 0.01 0.00 0.00 0.02 0.08 0.07 0.06 0.01 0.00 0.03 0.04 0.03 0.02 0.00 0.00 0.01 0.00 0.00 0.01 0.01 0.03 0.03 0.02 0.02 0.01 0.01 0.01 0.01 0.00 0.00 0.00 0.00 0.00 0.00 0.00 0.00 0.00 0.00 0.00 0.00 0.00 0.00 0.00 0.00 0.00 0.00
0.01 0.01 0.01 0.01 0.01 0.01 0.02 0.01 0.00 0.01 0.04 0.07 0.04 0.03 0.08 0.03 0.03 0.04 0.03 0.03 0.02 0.01 0.01 0.01 0.01 0.00 0.00 0.00 0.01 0.01 0.02 0.01 0.01 0.00 0.00 0.00 0.00 0.00 0.00 0.00 0.00 0.00 0.00 0.00 0.00 0.00 0.00 0.00 0.00 0.00 0.00 0.00 0.00 0.00
0.02 0.02 0.01 0.01 0.01 0.02 0.02 0.01 0.01 0.02 0.02 0.02 0.04 0.06 0.09 0.04 0.04 0.04 0.05 0.03 0.02 0.01 0.01 0.01 0.01 0.00 0.00 0.01 0.01 0.01 0.01 0.00 0.00 0.00 0.00 0.00 0.00 0.00 0.00 0.00 0.00 0.00 0.00 0.00 0.00 0.00 0.00 0.00 0.00 0.00 0.00 0.00 0.00 0.00
0.02 0.01 0.01 0.01 0.02 0.02 0.01 0.01 0.00 0.02 0.05 0.06 0.06 0.05 0.03 0.03 0.03 0.04 0.03 0.04 0.02 0.00 0.01 0.01 0.02 0.01 0.02 0.02 0.03 0.01 0.01 0.01 0.01 0.01 0.00 0.00 0.00 0.00 0.00 0.00 0.00 0.00 0.00 0.00 0.00 0.00 0.00 0.00 0.00 0.00 0.00 0.00 0.00 0.00
0.01 0.01 0.02 0.01 0.01 0.01 0.01 0.01 0.02 0.04 0.06 0.07 0.04 0.04 0.04 0.02 0.02 0.02 0.02 0.02 0.01 0.00 0.00 0.00 0.00 0.01 0.01 0.02 0.01 0.02 0.01 0.01 0.00 0.00 0.00 0.00 0.00 0.00 0.00 0.00 0.00 0.00 0.00 0.00 0.00 0.00 0.00 0.00 0.00 0.00 0.00 0.00 0.00 0.00
0.00 0.01 0.02 0.02 0.02 0.02 0.02 0.03 0.04 0.03 0.02 0.04 0.04 0.03 0.03 0.01 0.00 0.01 0.01 0.01 0.00 0.00 0.00 0.00 0.01 0.01 0.02 0.01 0.02 0.02 0.01 0.00 0.00 0.00 0.00 0.00 0.00 0.00 0.00 0.00 0.00 0.00 0.00 0.00 0.00 0.00 0.00 0.00 0.00 0.00 0.00 0.00 0.00 0.00
0.01 0.02 0.02 0.02 0.04 0.04 0.05 0.04 0.03 0.03 0.02 0.02 0.03 0.02 0.02 0.03 0.02 0.05 0.02 0.01 0.00 0.00 0.00 0.00 0.02 0.04 0.02 0.01 0.01 0.01 0.00 0.00 0.00 0.00 0.00 0.00 0.00 0.00 0.00 0.00 0.00 0.00 0.00 0.00 0.00 0.00 0.00 0.00 0.00 0.00 0.00 0.00 0.00 0.00
0.03 0.03 0.02 0.04 0.05 0.04 0.02 0.01 0.01 0.01 0.03 0.02 0.02 0.03 0.03 0.01 0.01 0.03 0.02 0.00 0.00 0.00 0.01 0.02 0.02 0.02 0.01 0.01 0.00 0.00 0.00 0.00 0.01 0.00 0.00 0.00 0.00 0.00 0.00 0.00 0.00 0.00 0.00 0.00 0.00 0.00 0.00 0.00 0.00 0.00 0.00 0.00 0.00 0.00
0.06 0.04 0.03 0.04 0.02 0.01 0.00 0.01 0.02 0.01 0.01 0.01 0.03 0.04 0.02 0.01 0.01 0.01 0.02 0.01 0.00 0.00 0.00 0.00 0.01 0.01 0.01 0.00 0.00 0.00 0.02 0.03 0.01 0.00 0.00 0.00 0.00 0.00 0.00 0.00 0.00 0.00 0.00 0.00 0.00 0.00 0.00 0.00 0.00 0.00 0.00 0.00 0.00 0.00
0.03 0.03 0.02 0.00 0.00 0.01 0.01 0.01 0.01 0.02 0.01 0.02 0.03 0.02 0.01 0.01 0.01 0.01 0.01 0.02 0.00 0.00 0.01 0.01 0.00 0.01 0.00 0.00 0.00 0.03 0.03 0.00 0.00 0.00 0.00 0.00 0.00 0.00 0.00 0.00 0.00 0.00 0.00 0.00 0.00 0.00 0.00 0.00 0.00 0.00 0.00 0.00 0.00 0.00
0.01 0.00 0.00 0.00 0.01 0.03 0.01 0.01 0.01 0.01 0.01 0.00 0.00 0.00 0.00 0.00 0.00 0.02 0.04 0.03 0.02 0.01 0.01 0.02 0.02 0.01 0.01 0.01 0.02 0.03 0.01 0.00 0.00 0.00 0.00 0.00 0.00 0.00 0.00 0.00 0.00 0.00 0.00 0.00 0.00 0.00 0.00 0.00 0.00 0.00 0.00 0.00 0.00 0.00
0.01 0.01 0.01 0.00 0.00 0.00 0.01 0.01 0.01 0.01 0.01 0.01 0.00 0.00 0.00 0.01 0.01 0.02 0.02 0.02 0.01 0.01 0.01 0.01 0.00 0.00 0.00 0.00 0.01 0.00 0.00 0.00 0.00 0.00 0.00 0.00 0.00 0.00 0.00 0.00 0.00 0.00 0.00 0.00 0.00 0.00 0.00 0.00 0.00 0.00 0.00 0.00 0.00 0.00
0.00 0.00 0.00 0.00 0.00 0.00 0.00 0.00 0.00 0.00 0.00 0.01 0.00 0.00 0.01 0.01 0.01 0.00 0.01 0.00 0.00 0.00 0.00 0.00 0.00 0.00 0.00 0.00 0.00 0.00 0.00 0.00 0.00 0.00 0.00 0.00 0.00 0.00 0.00 0.00 0.00 0.00 0.00 0.00 0.00 0.00 0.00 0.00 0.00 0.00 0.00 0.00 0.00 0.00
0.00 0.00 0.00 0.00 0.00 0.00 0.00 0.00 0.00 0.00 0.00 0.00 0.00 0.00 0.01 0.00 0.00 0.00 0.00 0.00 0.00 0.00 0.00 0.00 0.00 0.00 0.00 0.00 0.00 0.00 0.00 0.00 0.00 0.00 0.00 0.00 0.00 0.00 0.00 0.00 0.00 0.00 0.00 0.00 0.00 0.00 0.00 0.00 0.00 0.00 0.00 0.00 0.00 0.00
0.00 0.00 0.00 0.00 0.00 0.00 0.00 0.00 0.00 0.00 0.00 0.00 0.00 0.01 0.01 0.00 0.00 0.00 0.00 0.00 0.00 0.00 0.00 0.00 0.00 0.00 0.00 0.00 0.00 0.00 0.00 0.00 0.00 0.00 0.00 0.00 0.00 0.00 0.00 0.00 0.00 0.00 0.00 0.00 0.00 0.00 0.00 0.00 0.00 0.00 0.00 0.00 0.00 0.00
0.00 0.00 0.00 0.00 0.00 0.00 0.00 0.00 0.00 0.00 0.00 0.00 0.00 0.00 0.00 0.00 0.00 0.00 0.00 0.00 0.00 0.00 0.00 0.01 0.00 0.00 0.00 0.00 0.00 0.00 0.00 0.00 0.00 0.00 0.00 0.00 0.00 0.00 0.00 0.00 0.00 0.00 0.00 0.00 0.00 0.00 0.00 0.00 0.00 0.00 0.00 0.00 0.00 0.00
0.00 0.00 0.00 0.00 0.00 0.00 0.00 0.00 0.00 0.00 0.00 0.00 0.00 0.00 0.00 0.00 0.00 0.01 0.00 0.01 0.00 0.00 0.00 0.00 0.00 0.00 0.00 0.00 0.00 0.00 0.00 0.00 0.00 0.00 0.00 0.00 0.00 0.00 0.00 0.00 0.00 0.00 0.00 0.00 0.00 0.00 0.00 0.00 0.00 0.00 0.00 0.00 0.00 0.00
0.00 0.00 0.00 0.00 0.00 0.00 0.00 0.00 0.00 0.00 0.00 0.00 0.00 0.00 0.00 0.00 0.00 0.00 0.00 0.00 0.00 0.00 0.00 0.00 0.00 0.00 0.00 0.00 0.00 0.00 0.00 0.00 0.00 0.00 0.00 0.00 0.00 0.00 0.00 0.00 0.00 0.00 0.00 0.00 0.00 0.00 0.00 0.00 0.00 0.00 0.00 0.00 0.00 0.00
0.00 0.00 0.00 0.00 0.00 0.00 0.00 0.00 0.00 0.00 0.00 0.00 0.00 0.00 0.00 0.00 0.00 0.00 0.00 0.00 0.00 0.00 0.00 0.00 0.00 0.00 0.00 0.00 0.00 0.00 0.00 0.00 0.00 0.00 0.00 0.00 0.00 0.00 0.00 0.00 0.00 0.00 0.00 0.00 0.00 0.00 0.00 0.00 0.00 0.00 0.00 0.00 0.00 0.00
0.00 0.00 0.00 0.00 0.00 0.00 0.00 0.00 0.00 0.00 0.00 0.00 0.00 0.00 0.00 0.00 0.01 0.00 0.00 0.00 0.00 0.00 0.00 0.00 0.00 0.00 0.00 0.00 0.00 0.00 0.00 0.00 0.00 0.00 0.00 0.00 0.00 0.00 0.00 0.00 0.00 0.00 0.00 0.00 0.00 0.00 0.00 0.00 0.00 0.00 0.00 0.00 0.00 0.00
0.00 0.00 0.00 0.00 0.00 0.00 0.00 0.00 0.00 0.00 0.00 0.00 0.00 0.00 0.00 0.00 0.00 0.01 0.01 0.01 0.00 0.00 0.00 0.00 0.00 0.00 0.00 0.00 0.00 0.00 0.00 0.00 0.00 0.00 0.00 0.00 0.00 0.00 0.00 0.00 0.00 0.00 0.00 0.00 0.00 0.00 0.00 0.00 0.00 0.00 0.00 0.00 0.00 0.00
0.00 0.00 0.00 0.00 0.00 0.01 0.01 0.00 0.00 0.00 0.00 0.00 0.00 0.00 0.00 0.00 0.00 0.00 0.00 0.00 0.01 0.01 0.00 0.00 0.00 0.00 0.00 0.00 0.00 0.00 0.00 0.00 0.00 0.00 0.00 0.00 0.00 0.00 0.00 0.00 0.00 0.00 0.00 0.00 0.00 0.00 0.00 0.00 0.00 0.00 0.00 0.00 0.00 0.00
0.00 0.00 0.00 0.00 0.00 0.00 0.01 0.01 0.00 0.00 0.00 0.00 0.00 0.00 0.00 0.00 0.00 0.00 0.00 0.01 0.01 0.00 0.00 0.00 0.00 0.00 0.00 0.00 0.00 0.00 0.00 0.00 0.00 0.00 0.00 0.00 0.00 0.00 0.00 0.00 0.00 0.00 0.00 0.00 0.00 0.00 0.00 0.00 0.00 0.00 0.00 0.00 0.00 0.00
0.00 0.00 0.00 0.00 0.00 0.00 0.01 0.00 0.00 0.01 0.01 0.00 0.00 0.00 0.00 0.00 0.00 0.00 0.00 0.00 0.00 0.00 0.00 0.00 0.00 0.00 0.00 0.00 0.00 0.00 0.00 0.00 0.00 0.00 0.00 0.00 0.00 0.00 0.00 0.00 0.00 0.00 0.00 0.00 0.00 0.00 0.00 0.00 0.00 0.00 0.00 0.00 0.00 0.00
MSLP
1011.60 1011.38 1011.20 1011.10 1010.96 1010.95 1011.08 1011.50 1011.99 1012.54 1012.96 1013.46 1014.08 1014.72 1015.28 1015.82 1016.25 1017.06 1017.47 1017.91 1018.01 1016.20 1013.71 1012.68 1011.81 1011.43 1010.86 1010.64 1011.27 1011.67 1013.10 1013.25 1013.85 1014.54 1015.37 1015.45 1014.96 1014.23 1014.36 1014.58 1015.27 1016.07 1017.44 1017.76 1017.98 1017.06 1014.93 1012.98 1013.03 1013.57 1013.40 1013.70 1013.99 1014.77
1010.25 1009.99 1009.75 1009.56 1009.48 1009.36 1009.42 1009.88 1010.54 1011.10 1011.72 1012.28 1012.92 1013.71 1014.37 1014.90 1015.46 1016.14 1016.76 1017.09 1017.63 1017.56 1014.11 1012.00 1011.20 1011.36 1010.91 1010.70 1011.08 1011.50 1011.82 1012.39 1012.80 1013.58 1014.02 1014.00 1013.85 1013.15 1013.20 1013.15 1014.11 1014.75 1014.73 1014.98 1015.25 1014.13 1012.87 1011.92 1012.51 1013.28 1013.71 1014.03 1014.72 1015.37
1008.58 1008.36 1008.14 1007.99 1007.89 1007.91 1008.05 1008.45 1009.00 1009.66 1010.42 1011.12 1011.80 1012.71 1013.48 1014.17 1014.64 1015.19 1015.99 1016.51 1016.91 1016.75 1015.04 1012.38 1010.59 1010.75 1010.96 1011.30 1011.32 1011.20 1011.50 1011.69 1012.15 1012.51 1012.93 1012.87 1012.73 1012.38 1012.25 1011.94 1012.39 1013.10 1013.47 1013.21 1013.68 1012.82 1012.18 1012.23 1012.36 1013.04 1013.73 1014.12 1014.75 1015.49
1006.76 1006.52 1006.36 1006.22 1006.18 1006.22 1006.45 1006.87 1007.36 1008.01 1009.06 1010.21 1010.83 1011.78 1012.70 1013.42 1013.97 1014.57 1015.33 1015.99 1016.49 1016.19 1013.88 1011.05 1010.29 1010.15 1010.63 1011.10 1011.34 1011.75 1011.48 1011.23 1011.89 1012.48 1012.66 1012.75 1012.41 1011.54 1011.35 1010.88 1010.74 1011.15 1011.88 1012.23 1012.19 1011.91 1011.78 1011.99 1012.25 1012.78 1013.48 1014.28 1014.79 1015.44
1004.80 1004.57 1004.49 1004.45 1004.39 1004.53 1004.85 1005.35 1005.98 1006.82 1007.93 1009.02 1009.81 1010.91 1011.86 1012.73 1013.28 1013.82 1014.67 1015.16 1015.71 1016.09 1013.37 1010.81 1010.32 1009.92 1010.22 1010.71 1011.21 1010.95 1011.18 1011.43 1011.68 1012.18 1012.68 1012.74 1012.35 1011.84 1011.41 1011.16 1010.28 1009.82 1010.37 1010.93 1010.82 1011.39 1011.46 1011.63 1012.12 1012.46 1013.03 1013.96 1014.83 1015.47
1002.66 1002.51 1002.48 1002.53 1002.54 1002.66 1003.30 1003.98 1004.71 1005.68 1006.87 1007.84 1008.98 1010.15 1011.21 1011.93 1012.74 1013.78 1013.94 1014.30 1014.76 1015.49 1015.09 1011.07 1009.22 1009.74 1010.10 1010.79 1011.17 1011.21 1011.32 1011.49 1011.91 1012.43 1012.69 1012.30 1011.87 1011.89 1011.83 1010.87 1010.30 1009.81 1009.64 1009.96 1010.38 1010.76 1010.93 1011.23 1011.76 1012.15 1012.70 1013.45 1014.43 1015.40
1000.34 1000.29 1000.34 1000.55 1000.80 1001.08 1001.77 1002.66 1003.61 1004.75 1006.14 1007.21 1008.41 1009.57 1010.52 1011.32 1012.10 1012.37 1012.09 1012.35 1012.44 1014.72 1014.49 1010.83 1009.22 1009.24 1010.02 1010.60 1010.90 1011.27 1011.22 1011.48 1012.06 1012.70 1012.59 1012.27 1011.65 1011.88 1011.66 1010.45 1009.52 1009.44 1009.58 1009.74 1010.11 1010.63 1010.81 1011.28 1011.57 1012.33 1012.79 1013.17 1014.12 1015.12
997.82 997.95 998.16 998.58 998.88 999.55 1000.55 1001.44 1002.47 1004.05 1005.61 1006.69 1008.07 1009.20 1010.04 1010.80 1011.60 1011.91 1011.50 1011.83 1013.00 1013.48 1013.06 1009.77 1008.34 1009.07 1009.65 1010.19 1010.88 1011.08 1011.49 1012.20 1012.47 1012.77 1012.62 1012.15 1011.86 1011.87 1011.00 1010.30 1009.96 1009.60 1009.51 1009.50 1009.70 1010.32 1010.81 1011.17 1011.77 1012.43 1013.13 1013.27 1014.07 1015.21
994.97 995.29 995.89 996.77 997.50 998.55 999.68 1000.90 1001.88 1003.40 1005.01 1006.53 1007.85 1009.04 1010.03 1010.40 1010.36 1009.80 1010.33 1011.30 1012.25 1012.93 1010.99 1008.57 1006.83 1007.55 1008.86 1009.69 1010.86 1011.67 1011.87 1012.37 1012.21 1012.24 1012.14 1011.88 1011.12 1009.91 1009.64 1009.78 1009.51 1009.48 1009.27 1009.32 1009.73 1010.07 1010.55 1010.96 1011.77 1012.34 1013.24 1013.62 1014.52 1015.58
992.53 992.96 993.46 994.71 996.25 997.67 999.27 1000.75 1001.90 1003.24 1004.92 1006.37 1007.91 1008.48 1008.33 1008.56 1008.81 1009.20 1009.94 1010.22 1010.51 1010.68 1010.52 1006.90 1004.98 1006.45 1007.71 1008.93 1010.52 1011.33 1011.46 1011.47 1011.68 1011.55 1011.53 1010.75 1009.18 1009.11 1008.90 1009.05 1009.15 1009.12 1009.04 1008.98 1009.13 1009.70 1010.30 1010.79 1011.53 1012.21 1012.94 1013.79 1014.79 1015.77
990.64 991.49 992.41 993.33 995.07 996.96 998.71 1000.29 1001.74 1003.35 1004.88 1006.12 1006.83 1006.78 1006.47 1007.05 1008.66 1008.89 1008.15 1007.80 1007.26 1006.91 1006.62 1005.45 1003.80 1004.80 1007.11 1007.75 1009.33 1010.41 1010.95 1011.16 1010.76 1010.21 1010.50 1008.93 1007.40 1007.76 1008.36 1008.11 1008.30 1008.52 1008.42 1008.30 1008.52 1009.26 1010.18 1010.89 1011.65 1012.32 1013.21 1014.12 1015.10 1015.86
988.42 990.03 990.77 992.64 994.73 996.46 998.30 999.99 1001.49 1002.87 1003.80 1004.78 1005.18 1005.60 1007.02 1006.94 1006.92 1006.90 1005.71 1004.62 1004.20 1003.66 1003.56 1003.27 1003.46 1004.22 1006.24 1007.95 1008.92 1009.81 1009.98 1010.07 1009.16 1008.86 1009.11 1006.74 1005.93 1005.79 1006.05 1006.23 1006.79 1007.47 1007.96 1008.11 1008.70 1009.20 1010.06 1010.94 1011.86 1012.56 1013.63 1014.69 1015.70 1016.75
988.08 989.48 991.22 993.03 994.76 996.44 998.21 999.63 1000.93 1002.56 1003.86 1004.90 1005.24 1005.25 1006.03 1004.65 1004.27 1003.31 1001.20 1001.65 1000.99 1001.15 1001.05 1001.79 1003.50 1004.28 1006.60 1007.93 1008.50 1009.06 1008.87 1008.73 1008.58 1008.42 1007.00 1005.18 1004.99 1004.71 1004.71 1004.88 1005.69 1006.62 1007.39 1008.24 1008.88 1009.48 1010.21 1011.28 1012.22 1013.15 1014.36 1015.76 1016.80 1018.10
990.00 991.25 992.56 993.81 995.33 997.04 998.53 1000.00 1001.57 1002.94 1003.75 1003.93 1004.34 1003.97 1003.61 1001.28 1000.47 999.97 998.83 999.36 998.45 999.05 1000.12 1001.32 1002.36 1003.62 1005.33 1006.77 1007.88 1007.81 1007.60 1007.52 1007.34 1006.33 1004.58 1004.45 1004.13 1003.97 1004.19 1004.71 1004.97 1005.75 1006.95 1008.23 1009.00 1009.83 1010.81 1012.06 1013.62 1014.48 1015.71 1016.90 1017.81 1019.23
992.01 992.91 993.93 995.30 996.44 997.82 999.17 1000.57 1001.93 1003.02 1003.33 1003.30 1003.25 1002.40 1000.25 998.51 998.09 997.55 997.17 997.53 997.24 996.86 998.84 1000.82 1002.06 1003.49 1005.01 1006.44 1006.44 1006.55 1006.44 1005.80 1004.82 1003.58 1003.49 1003.51 1003.45 1003.96 1004.43 1004.91 1005.18 1005.62 1007.04 1008.42 1009.44 1011.16 1012.48 1013.58 1014.57 1016.08 1017.04 1017.79 1018.86 1020.07
993.56 994.39 995.01 996.35 997.46 998.72 1000.08 1001.58 1002.73 1002.51 1002.43 1002.61 1001.98 1000.21 997.81 997.17 996.60 996.62 996.42 996.74 996.59 997.18 999.04 999.92 1002.02 1003.75 1004.48 1004.84 1005.06 1005.11 1004.77 1003.68 1002.86 1003.00 1002.98 1003.11 1003.64 1004.33 1004.81 1005.23 1005.60 1006.33 1007.58 1009.16 1010.87 1012.10 1013.43 1014.31 1015.23 1016.56 1017.51 1018.57 1019.61 1020.25
994.47 995.11 996.13 996.97 998.27 999.64 1001.11 1002.15 1002.72 1002.72 1002.17 1001.15 999.51 998.90 997.80 995.82 995.85 995.97 995.82 995.75 996.76 997.50 998.95 1000.21 1001.25 1002.32 1002.85 1003.33 1003.29 1003.18 1002.79 1002.28 1002.30 1002.83 1003.27 1003.47 1004.10 1004.79 1005.36 1005.78 1006.27 1007.12 1008.38 1010.13 1011.57 1012.92 1013.97 1014.92 1015.93 1016.97 1018.10 1019.19 1019.63 1020.05
995.55 996.51 997.20 998.10 999.46 1000.96 1001.78 1001.53 1001.48 1001.65 1000.79 999.11 997.17 996.29 995.95 995.79 996.08 996.43 996.45 996.87 997.17 997.84 998.53 999.71 1000.36 1001.02 1001.58 1001.52 1001.57 1001.84 1002.37 1002.86 1003.34 1003.72 1004.17 1004.60 1005.08 1005.48 1005.89 1006.59 1007.18 1008.28 1009.69 1011.11 1012.21 1013.39 1014.35 1015.31 1016.30 1017.12 1017.87 1018.60 1019.05 1019.55
996.31 997.42 998.39 998.83 999.00 999.62 1000.61 1001.26 1001.50 999.96 998.39 997.22 996.33 996.42 996.50 996.47 996.34 996.46 996.90 997.62 998.15 998.71 999.49 1000.24 1000.85 1000.78 1000.83 1000.84 1000.94 1001.22 1002.14 1003.36 1004.31 1005.25 1005.66 1005.85 1006.10 1006.49 1007.20 1008.05 1009.09 1009.98 1010.97 1012.03 1012.95 1013.84 1014.54 1015.36 1016.09 1016.86 1017.47 1018.01 1018.25 1018.70
997.89 998.41 998.87 999.26 999.65 1000.16 1000.84 1000.95 1000.65 999.15 998.43 998.50 997.88 997.78 997.56 997.59 997.90 998.24 999.03 999.82 999.46 1000.54 1000.96 1001.02 1001.15 1001.22 1001.21 1001.55 1001.21 1001.89 1003.03 1004.35 1004.91 1006.18 1006.94 1007.29 1007.45 1007.90 1008.70 1009.38 1010.18 1010.88 1012.02 1012.91 1013.55 1014.01 1014.70 1015.90 1016.56 1017.00 1017.47 1017.90 1018.37 1018.85
999.37 999.86 1000.11 999.98 1000.24 999.77 998.97 998.40 998.85 999.29 999.33 999.59 999.39 998.98 999.28 999.55 999.98 1000.40 1001.01 1001.58 1001.70 1002.44 1002.65 1002.82 1002.93 1003.01 1002.83 1002.65 1002.83 1003.99 1004.71 1005.29 1005.86 1006.45 1007.28 1008.16 1008.90 1009.26 1009.74 1010.48 1011.12 1011.98 1012.95 1013.64 1014.15 1014.89 1015.68 1016.57 1017.10 1017.76 1018.15 1018.74 1019.12 1019.32
999.89 1000.46 1000.91 1000.63 999.73 998.99 999.04 998.93 998.98 999.24 999.82 999.98 999.76 999.75 1000.21 1001.03 1001.67 1002.14 1002.33 1002.51 1003.59 1004.18 1004.13 1004.21 1004.41 1004.21 1004.31 1004.49 1004.83 1005.21 1005.91 1006.60 1007.36 1007.95 1008.64 1009.17 1009.73 1010.18 1010.77 1011.53 1012.34 1013.10 1013.88 1014.48 1014.92 1015.58 1016.40 1017.06 1017.67 1018.10 1018.70 1019.00 1019.20 1019.30
1000.33 1000.31 999.57 999.16 999.37 999.50 1000.09 999.21 999.05 999.05 999.69 1000.24 1000.42 1001.03 1001.80 1002.42 1002.99 1002.89 1003.56 1004.37 1005.05 1005.40 1005.23 1005.34 1005.48 1005.30 1005.68 1005.87 1005.87 1006.63 1007.15 1007.70 1008.50 1009.06 1009.61 1010.13 1010.78 1011.41 1011.98 1012.64 1013.36 1013.95 1014.49 1015.17 1015.77 1016.34 1017.17 1017.85 1018.34 1018.62 1018.90 1019.16 1019.37 1019.54
999.39 999.55 999.45 999.33 999.54 1000.19 1000.36 1000.21 999.99 1000.01 1000.34 1000.50 1000.79 1001.45 1002.22 1003.07 1003.73 1003.80 1004.55 1005.43 1005.93 1005.94 1006.04 1006.43 1006.60 1006.74 1007.18 1007.27 1007.59 1008.05 1008.36 1008.94 1009.69 1010.33 1010.69 1011.08 1011.72 1012.49 1013.10 1013.75 1014.31 1014.80 1015.27 1015.79 1016.35 1017.03 1017.66 1018.29 1018.67 1018.82 1019.17 1019.38 1019.54 1019.55
998.87 1000.38 1000.05 999.97 999.78 999.98 1000.18 1000.53 1000.48 1000.39 1000.89 1001.12 1001.69 1002.47 1003.34 1003.58 1004.17 1004.90 1005.61 1006.42 1006.36 1006.63 1006.92 1007.07 1007.17 1007.46 1007.73 1008.34 1008.85 1009.35 1009.73 1009.82 1010.32 1011.09 1011.81 1012.14 1012.72 1013.52 1014.28 1014.95 1015.50 1015.92 1016.21 1016.75 1017.41 1018.02 1018.48 1018.87 1019.12 1019.19 1019.31 1019.45 1019.47 1019.42
1000.23 1001.02 1000.58 1000.27 1000.24 1000.20 1000.55 1000.96 1001.15 1001.37 1001.89 1002.39 1002.91 1003.35 1003.65 1004.23 1005.02 1006.03 1006.85 1007.10 1007.17 1007.29 1007.49 1007.73 1007.99 1008.50 1009.11 1009.48 1009.84 1010.46 1010.91 1011.18 1011.49 1012.11 1012.92 1013.41 1013.97 1014.47 1015.15 1015.90 1016.56 1017.18 1017.46 1017.70 1018.10 1018.46 1018.75 1019.00 1019.19 1019.33 1019.41 1019.39 1019.29 1019.22
1000.91 1001.28 1001.15 1000.85 1000.42 1000.63 1001.17 1001.51 1001.82 1002.30 1002.72 1003.18 1003.71 1004.16 1004.51 1005.26 1006.45 1007.99 1008.50 1008.60 1008.39 1008.33 1008.33 1008.49 1008.92 1009.61 1010.25 1011.01 1011.35 1011.67 1012.12 1012.68 1013.15 1013.76 1014.28 1014.75 1015.16 1015.42 1015.88 1016.44 1017.22 1017.90 1018.14 1018.48 1018.78 1019.04 1019.20 1019.30 1019.36 1019.37 1019.30 1019.19 1019.04 1018.94
1001.78 1001.67 1001.68 1001.62 1001.30 1001.57 1002.17 1002.67 1002.96 1003.32 1003.55 1003.64 1004.39 1005.34 1006.21 1007.23 1008.50 1009.45 1009.69 1009.80 1009.53 1009.43 1009.65 1010.17 1010.66 1011.18 1011.77 1012.47 1013.01 1013.40 1013.91 1014.37 1014.83 1015.26 1015.82 1016.41 1016.92 1017.31 1017.67 1018.09 1018.59 1018.82 1018.94 1019.10 1019.23 1019.38 1019.44 1019.47 1019.45 1019.40 1019.31 1019.12 1018.84 1018.69
1002.29 1002.47 1002.68 1002.91 1002.97 1003.69 1004.45 1004.41 1004.55 1004.94 1005.28 1004.79 1005.70 1007.22 1008.69 1009.75 1010.06 1010.36 1010.72 1010.72 1010.72 1010.66 1010.94 1011.47 1012.34 1012.72 1013.18 1013.70 1014.18 1014.66 1015.04 1015.28 1015.46 1015.88 1016.53 1017.27 1017.78 1018.49 1018.68 1018.86 1019.00 1019.13 1019.20 1019.26 1019.23 1019.33 1019.36 1019.39 1019.34 1019.26 1019.07 1018.84 1018.53 1018.27
1003.09 1002.91 1003.51 1004.38 1004.83 1005.81 1006.55 1006.26 1006.43 1006.57 1006.36 1006.49 1007.63 1009.31 1010.25 1011.11 1011.35 1011.22 1011.35 1011.39 1011.49 1011.67 1012.02 1012.48 1013.06 1013.51 1014.01 1014.46 1015.26 1015.97 1016.36 1016.46 1016.39 1016.47 1016.99 1017.87 1018.52 1019.07 1019.18 1019.25 1019.31 1019.34 1019.34 1019.27 1019.21 1019.17 1019.10 1018.94 1018.74 1018.54 1018.30 1018.08 1017.79 1017.52
1003.43 1003.45 1004.11 1005.27 1006.53 1007.38 1007.40 1007.44 1007.25 1007.22 1007.31 1007.83 1008.56 1009.38 1010.51 1011.63 1012.33 1012.71 1012.53 1012.38 1012.41 1012.54 1012.79 1013.30 1013.91 1014.50 1014.94 1015.51 1015.95 1016.47 1017.41 1018.08 1018.23 1018.31 1018.53 1018.91 1019.23 1019.37 1019.62 1019.76 1019.69 1019.67 1019.56 1019.41 1019.26 1019.10 1018.94 1018.75 1018.50 1018.15 1017.81 1017.53 1017.27 1017.04
1003.70 1003.79 1004.73 1005.94 1007.08 1007.71 1007.58 1007.67 1008.09 1008.62 1008.91 1009.18 1009.75 1010.37 1010.98 1011.60 1012.71 1013.83 1014.06 1013.44 1013.35 1013.55 1013.97 1014.27 1014.80 1015.60 1016.13 1016.60 1016.86 1017.11 1017.74 1018.50 1018.99 1019.28 1019.47 1019.65 1019.87 1020.12 1020.11 1020.03 1019.90 1019.72 1019.56 1019.48 1019.33 1019.10 1018.84 1018.59 1018.30 1017.97 1017.58 1017.15 1016.75 1016.41
1004.48 1004.88 1005.51 1006.25 1007.11 1007.30 1007.61 1007.62 1008.48 1009.31 1009.64 1010.03 1010.52 1010.93 1011.44 1012.16 1013.48 1014.62 1014.97 1014.42 1014.32 1014.60 1015.12 1015.73 1016.24 1016.66 1017.08 1017.48 1017.89 1018.33 1018.80 1019.28 1019.67 1020.11 1020.36 1020.59 1020.73 1020.64 1020.44 1020.19 1020.08 1019.95 1019.71 1019.36 1019.01 1018.74 1018.48 1018.21 1017.89 1017.56 1017.18 1016.76 1016.29 1015.83
Thickness
5258 5260 5264 5266 5269 5272 5273 5273 5272 5272 5273 5274 5277 5281 5289 5299 5309 5316 5328 5335 5343 5370 5406 5422 5439 5449 5463 5475 5470 5480 5473 5479 5483 5481 5482 5493 5507 5523 5524 5527 5517 5513 5495 5493 5497 5498 5506 5549 5545 5528 5538 5536 5533 5524
5258 5261 5264 5267 5269 5272 5274 5274 5272 5273 5273 5273 5273 5275 5278 5285 5295 5304 5314 5326 5331 5337 5383 5413 5429 5438 5452 5463 5468 5467 5477 5482 5488 5485 5494 5502 5506 5520 5523 5522 5524 5514 5522 5518 5518 5526 5545 5554 5543 5536 5532 5528 5521 5514
5261 5264 5267 5269 5271 5272 5274 5274 5273 5272 5271 5271 5271 5270 5272 5274 5282 5291 5304 5314 5321 5332 5358 5390 5421 5432 5439 5445 5450 5455 5467 5477 5480 5487 5491 5500 5502 5515 5515 5524 5524 5523 5527 5528 5524 5535 5542 5541 5541 5534 5527 5522 5518 5510
5265 5269 5271 5273 5275 5275 5276 5276 5275 5274 5270 5266 5268 5265 5265 5266 5271 5280 5290 5303 5311 5326 5355 5394 5410 5422 5432 5434 5442 5448 5460 5471 5474 5477 5479 5484 5494 5516 5517 5529 5529 5533 5529 5526 5528 5535 5536 5536 5533 5529 5524 5516 5511 5505
5270 5274 5275 5276 5279 5280 5279 5277 5274 5271 5267 5264 5264 5261 5258 5258 5264 5273 5280 5292 5305 5318 5356 5389 5399 5413 5421 5428 5432 5442 5450 5456 5463 5463 5461 5470 5489 5499 5508 5512 5523 5538 5531 5523 5526 5528 5529 5529 5528 5525 5520 5511 5504 5498
5276 5279 5281 5282 5283 5284 5280 5276 5273 5267 5264 5262 5260 5256 5251 5252 5256 5257 5265 5281 5299 5312 5321 5367 5398 5398 5410 5416 5420 5431 5437 5446 5450 5449 5455 5472 5485 5487 5486 5500 5518 5528 5534 5533 5528 5529 5530 5528 5526 5522 5516 5511 5502 5492
5284 5286 5288 5287 5287 5286 5281 5275 5268 5262 5259 5258 5255 5251 5247 5246 5247 5253 5272 5293 5312 5310 5322 5361 5373 5390 5399 5404 5411 5419 5429 5437 5437 5435 5445 5462 5477 5474 5479 5496 5519 5524 5524 5525 5526 5522 5522 5518 5517 5513 5510 5507 5498 5489
5292 5292 5293 5290 5291 5287 5281 5274 5268 5261 5255 5255 5250 5245 5242 5242 5243 5247 5269 5286 5295 5312 5322 5365 5367 5375 5385 5391 5394 5411 5414 5417 5420 5424 5436 5449 5462 5463 5467 5493 5505 5515 5516 5516 5520 5518 5514 5514 5509 5505 5499 5499 5491 5481
5300 5300 5298 5294 5291 5285 5278 5270 5266 5261 5254 5249 5244 5238 5235 5235 5242 5268 5276 5278 5289 5303 5331 5356 5374 5375 5382 5389 5389 5391 5399 5394 5415 5415 5426 5440 5454 5462 5477 5489 5501 5504 5507 5509 5509 5511 5510 5507 5501 5498 5491 5488 5480 5470
5299 5302 5303 5298 5290 5282 5271 5263 5258 5255 5248 5242 5234 5232 5238 5249 5262 5264 5266 5273 5289 5300 5308 5358 5390 5372 5385 5389 5382 5386 5393 5401 5399 5413 5425 5431 5458 5474 5483 5492 5496 5497 5502 5505 5504 5504 5501 5499 5496 5492 5487 5481 5473 5464
5286 5291 5294 5296 5288 5277 5266 5257 5252 5246 5237 5232 5231 5244 5262 5259 5251 5256 5269 5283 5310 5326 5335 5363 5387 5386 5389 5390 5384 5386 5382 5391 5392 5417 5419 5439 5462 5470 5477 5490 5494 5494 5499 5503 5506 5502 5496 5493 5488 5484 5479 5472 5464 5459
5282 5282 5292 5289 5280 5271 5261 5253 5247 5243 5244 5244 5251 5256 5248 5254 5257 5260 5286 5315 5327 5347 5354 5375 5384 5395 5391 5383 5380 5380 5384 5394 5404 5426 5420 5448 5473 5487 5489 5493 5494 5494 5493 5496 5495 5494 5491 5486 5481 5477 5470 5463 5454 5439
5278 5282 5282 5278 5272 5266 5258 5255 5254 5247 5242 5242 5246 5252 5244 5272 5272 5285 5317 5330 5351 5356 5378 5380 5371 5382 5374 5374 5375 5377 5381 5387 5410 5400 5425 5466 5479 5488 5495 5497 5494 5492 5490 5486 5485 5485 5483 5477 5472 5467 5457 5438 5428 5417
5276 5275 5273 5271 5267 5260 5256 5253 5247 5243 5244 5250 5250 5260 5262 5294 5311 5321 5345 5352 5378 5386 5382 5386 5388 5388 5386 5377 5370 5375 5389 5397 5392 5410 5447 5466 5478 5483 5488 5488 5492 5490 5485 5479 5477 5475 5468 5455 5436 5432 5422 5415 5406 5394
5270 5269 5267 5263 5260 5258 5256 5251 5247 5244 5250 5256 5265 5271 5299 5331 5345 5353 5369 5379 5394 5412 5404 5394 5395 5393 5383 5364 5379 5382 5378 5382 5415 5450 5461 5467 5475 5473 5475 5477 5480 5483 5470 5468 5463 5443 5431 5426 5420 5408 5404 5399 5390 5379
5264 5260 5261 5258 5258 5256 5252 5247 5245 5256 5264 5266 5275 5295 5330 5349 5355 5364 5383 5388 5402 5404 5399 5403 5383 5371 5371 5378 5379 5375 5385 5409 5444 5450 5457 5463 5462 5458 5462 5464 5468 5467 5460 5449 5434 5426 5418 5412 5407 5397 5393 5382 5373 5368
5258 5260 5259 5260 5258 5253 5248 5248 5250 5255 5266 5278 5299 5309 5331 5373 5372 5381 5394 5404 5402 5399 5387 5389 5381 5379 5389 5380 5388 5403 5417 5440 5441 5441 5444 5448 5446 5448 5449 5451 5451 5450 5443 5430 5420 5412 5406 5400 5393 5384 5376 5367 5364 5360
5259 5259 5259 5259 5256 5248 5249 5263 5273 5273 5281 5299 5326 5355 5366 5377 5378 5378 5386 5391 5398 5400 5404 5394 5399 5394 5388 5396 5407 5417 5418 5418 5419 5422 5426 5429 5432 5435 5437 5436 5434 5429 5422 5411 5404 5397 5391 5385 5379 5375 5369 5363 5359 5354
5267 5263 5261 5265 5272 5274 5270 5270 5273 5299 5311 5331 5353 5362 5367 5374 5383 5389 5391 5391 5395 5397 5392 5389 5385 5392 5401 5409 5411 5414 5410 5406 5400 5396 5400 5409 5413 5415 5415 5412 5406 5402 5399 5393 5389 5384 5380 5376 5371 5365 5362 5357 5357 5352
5266 5269 5271 5275 5278 5281 5280 5286 5291 5314 5322 5324 5346 5352 5361 5367 5371 5372 5367 5363 5378 5365 5369 5379 5384 5390 5397 5395 5404 5401 5396 5387 5387 5379 5381 5387 5392 5394 5392 5391 5387 5385 5380 5378 5375 5372 5368 5359 5355 5353 5350 5347 5344 5339
5270 5271 5275 5281 5282 5293 5310 5322 5323 5320 5324 5321 5336 5347 5346 5350 5345 5346 5346 5347 5352 5347 5350 5354 5360 5364 5372 5380 5381 5371 5369 5374 5374 5376 5373 5370 5372 5375 5375 5374 5374 5369 5362 5359 5357 5350 5348 5343 5340 5335 5333 5327 5324 5322
5279 5278 5278 5285 5304 5316 5318 5324 5328 5331 5326 5329 5338 5345 5342 5334 5330 5332 5337 5342 5332 5330 5337 5341 5343 5350 5353 5355 5356 5358 5356 5355 5355 5355 5354 5357 5359 5360 5359 5356 5353 5349 5346 5342 5341 5338 5333 5329 5325 5323 5317 5314 5313 5314
5285 5290 5305 5315 5314 5316 5312 5330 5332 5338 5329 5327 5334 5328 5324 5321 5319 5329 5322 5320 5319 5318 5326 5329 5331 5336 5334 5340 5345 5341 5342 5342 5340 5341 5342 5343 5342 5341 5340 5339 5335 5333 5331 5328 5325 5323 5316 5311 5307 5307 5306 5304 5302 5300
5304 5306 5310 5314 5319 5309 5316 5316 5327 5330 5329 5331 5331 5322 5321 5315 5313 5319 5315 5311 5309 5313 5317 5316 5317 5319 5318 5321 5324 5325 5329 5328 5324 5324 5328 5328 5326 5324 5323 5321 5320 5318 5317 5315 5312 5308 5304 5299 5296 5298 5294 5292 5290 5289
5319 5303 5312 5312 5321 5321 5319 5316 5320 5329 5320 5328 5322 5316 5309 5315 5312 5309 5306 5300 5307 5306 5306 5308 5311 5314 5317 5314 5313 5312 5315 5319 5318 5314 5314 5315 5313 5310 5307 5304 5302 5301 5301 5298 5294 5290 5288 5285 5284 5284 5283 5281 5279 5278
5303 5299 5311 5315 5319 5324 5323 5317 5319 5321 5316 5311 5311 5314 5316 5312 5308 5303 5299 5297 5299 5301 5302 5305 5306 5306 5303 5305 5305 5304 5305 5306 5306 5304 5301 5300 5298 5296 5292 5288 5285 5282 5282 5282 5280 5278 5277 5276 5274 5272 5271 5270 5269 5269
5302 5300 5308 5315 5324 5325 5322 5325 5325 5317 5309 5306 5307 5308 5311 5309 5299 5280 5279 5280 5287 5290 5296 5300 5300 5297 5294 5291 5292 5293 5293 5291 5289 5286 5284 5282 5282 5282 5282 5281 5275 5269 5269 5267 5265 5264 5263 5263 5262 5261 5261 5261 5260 5259
5295 5301 5297 5306 5316 5318 5312 5311 5310 5305 5307 5315 5308 5298 5295 5289 5278 5268 5270 5271 5277 5281 5284 5283 5282 5281 5279 5277 5275 5275 5273 5271 5270 5269 5266 5263 5261 5259 5258 5257 5254 5253 5253 5253 5253 5252 5251 5251 5250 5249 5249 5249 5249 5247
5289 5292 5292 5284 5297 5290 5282 5291 5292 5290 5286 5299 5295 5281 5263 5256 5258 5259 5259 5262 5266 5269 5270 5269 5265 5265 5265 5264 5263 5262 5261 5262 5262 5261 5256 5252 5249 5244 5243 5243 5243 5243 5243 5243 5243 5242 5241 5240 5240 5239 5239 5239 5239 5239
5277 5288 5281 5273 5272 5265 5259 5268 5266 5268 5274 5274 5264 5250 5246 5242 5245 5250 5251 5254 5256 5257 5257 5257 5255 5255 5253 5252 5247 5243 5242 5244 5248 5252 5249 5243 5236 5232 5232 5233 5233 5233 5233 5233 5233 5233 5233 5234 5234 5234 5234 5234 5233 5231
5274 5279 5274 5264 5251 5247 5252 5255 5260 5263 5266 5261 5257 5250 5241 5235 5233 5232 5237 5241 5244 5245 5247 5245 5243 5241 5240 5237 5236 5232 5227 5224 5224 5225 5226 5224 5223 5223 5221 5220 5221 5221 5222 5223 5224 5224 5224 5224 5224 5224 5224 5223 5220 5218
5267 5270 5261 5249 5244 5244 5250 5252 5249 5245 5245 5245 5241 5240 5239 5237 5229 5220 5219 5229 5232 5232 5231 5233 5230 5225 5223 5221 5221 5221 5218 5214 5211 5211 5211 5211 5211 5208 5209 5209 5210 5212 5212 5212 5212 5212 5212 5212 5212 5211 5211 5210 5209 5206
5255 5254 5250 5245 5241 5245 5246 5251 5243 5235 5236 5235 5232 5232 5231 5228 5218 5209 5208 5215 5219 5219 5216 5213 5211 5210 5209 5208 5207 5205 5202 5200 5198 5197 5197 5196 5196 5196 5198 5199 5200 5200 5201 5202 5203 5203 5203 5202 5200 5199 5197 5196 5195 5194